RH
20 14 9 9 9 9 8 8 7 8 9 9 10 11 11 12 12 14 15 14 15 18 19 18 20 21 21 21 19 20 23 25 29 29 28 26 24 22 21 21 22 22 22 22 20 18 17 17 18 20 23 24 24 25 26 27 31 34 34 33 33 39 47 48 42 34 25 23 25 26 29 35 39 41 41 44 49 52 54 54 51 49 50 47 47
21 20 14 11 11 11 12 12 11 10 11 12 12 14 15 16 16 16 18 19 18 17 17 20 20 20 21 21 20 23 27 30 35 36 33 27 24 23 23 23 25 28 32 34 30 28 27 25 26 28 29 33 38 42 42 39 36 33 29 23 21 30 44 49 47 43 34 25 23 27 33 39 43 45 44 45 44 41 39 38 37 41 45 46 55
18 21 21 16 13 12 13 14 14 14 13 14 15 15 16 19 21 20 21 22 19 16 17 20 21 21 20 19 19 22 22 23 27 28 27 25 22 23 23 23 25 29 34 38 38 37 36 31 29 29 27 33 43 48 46 41 37 36 32 27 26 31 39 42 44 47 42 31 26 27 31 35 39 42 41 38 35 34 32 29 29 40 49 54 67
15 19 24 24 18 14 14 14 15 15 15 16 16 17 18 19 23 25 24 22 21 19 17 17 18 18 20 25 32 33 29 29 27 21 20 23 24 25 26 25 26 28 29 33 37 38 34 30 31 32 33 37 45 49 46 42 40 40 39 38 38 37 35 36 39 43 41 35 28 25 25 29 34 34 30 24 23 30 35 33 37 52 64 68 77
13 15 20 25 25 21 18 16 15 15 15 16 17 18 21 21 25 30 29 25 25 25 23 26 31 35 41 53 63 65 64 64 56 39 29 27 25 23 24 24 24 27 28 29 32 33 33 36 38 39 39 39 41 42 40 39 39 40 41 40 39 37 34 34 38 43 43 36 28 24 25 27 29 26 22 18 20 29 41 50 59 72 79 80 83
13 13 15 20 25 26 25 22 19 16 14 15 17 19 21 22 25 28 28 27 26 27 35 50 63 69 74 76 75 76 80 81 74 64 58 56 47 31 23 22 22 24 26 25 26 27 30 37 39 37 37 36 35 34 33 36 40 42 44 42 40 41 40 41 47 53 50 39 30 27 29 31 30 26 22 19 19 25 39 57 70 76 79 82 83
14 12 14 17 21 25 28 28 25 21 17 15 17 19 20 21 22 24 25 26 26 29 40 56 70 79 79 71 67 75 81 76 70 67 68 73 66 42 27 25 22 20 23 24 26 27 29 32 34 32 31 29 29 30 31 34 37 42 47 50 50 49 47 50 56 57 54 51 46 39 34 34 36 38 39 35 26 24 35 54 67 70 72 75 75
16 12 13 15 18 21 23 25 26 24 20 17 16 17 18 18 20 21 22 25 27 29 36 47 59 68 64 53 54 68 77 76 72 68 64 64 58 39 27 29 28 23 22 22 22 24 25 28 32 32 31 30 30 31 33 34 36 37 40 43 46 46 46 50 54 52 53 59 63 55 42 36 36 41 48 51 44 37 39 51 63 68 69 70 68
16 12 12 12 15 18 17 17 19 19 18 18 16 16 16 16 17 17 18 21 23 25 35 47 55 56 49 42 45 55 68 78 76 67 61 58 49 32 21 26 33 33 33 33 32 30 27 27 28 28 29 30 31 32 33 32 33 32 32 32 32 32 35 41 46 46 48 57 66 63 54 48 45 46 50 54 55 53 53 57 63 68 71 71 69
24 15 13 12 11 14 14 13 13 13 14 15 14 14 15 14 15 14 14 17 19 25 37 45 48 47 42 38 41 47 57 73 78 72 64 58 50 36 22 19 23 26 31 36 39 40 40 40 37 29 24 22 22 23 24 23 22 21 20 19 18 18 20 25 30 30 32 40 47 48 45 42 41 45 50 52 53 57 62 67 70 72 74 76 76
42 25 16 13 10 10 12 12 12 12 12 13 13 13 14 14 14 13 12 13 17 22 26 26 30 37 37 37 40 39 36 43 57 66 67 61 54 48 41 33 24 19 21 24 26 28 35 41 43 39 36 35 34 30 24 18 16 15 16 15 13 13 14 16 16 15 20 32 39 37 30 24 22 29 37 44 49 56 63 68 73 76 79 82 83
59 45 28 17 12 10 11 12 13 13 13 13 12 12 12 12 12 14 15 14 16 20 20 18 22 30 36 40 41 35 28 27 35 48 56 55 50 49 53 52 39 25 23 22 19 17 21 29 35 39 44 51 56 54 45 34 25 23 29 37 35 25 17 15 14 15 26 41 47 42 32 24 24 31 39 44 47 51 54 55 58 63 67 69 69
70 68 52 31 17 10 10 12 12 13 13 12 13 13 13 13 16 22 24 22 25 31 29 24 23 27 35 41 38 33 35 40 43 47 50 49 47 48 55 61 59 52 51 46 35 25 21 21 25 28 31 35 40 44 46 45 39 32 35 48 56 45 29 22 20 20 29 41 46 45 37 28 29 38 47 52 51 47 44 41 41 44 48 52 54
72 75 73 60 36 15 9 13 13 13 13 11 12 17 17 14 16 20 25 32 40 40 34 27 24 25 31 36 35 34 38 43 48 53 54 51 49 47 49 57 67 73 74 72 64 52 42 35 32 29 24 22 21 21 27 38 47 43 33 34 43 41 30 27 26 21 20 27 37 44 42 32 29 34 42 48 52 54 53 50 48 48 49 53 56
76 73 79 79 62 33 16 15 17 17 15 15 20 25 23 17 14 14 20 31 37 33 28 28 29 30 29 28 29 30 32 33 37 41 40 37 33 32 35 47 63 71 70 71 74 73 69 68 66 58 49 41 33 26 23 28 36 39 35 32 33 31 26 29 33 30 21 19 25 35 40 38 37 41 46 51 57 63 65 65 64 61 61 64 67
86 79 80 84 82 64 45 38 35 25 18 25 40 43 32 22 18 15 17 23 26 27 29 32 38 43 43 39 35 31 28 27 28 28 27 26 24 24 32 46 61 67 68 71 77 81 84 87 87 85 83 77 67 59 52 41 30 28 34 42 43 38 34 34 36 38 35 30 28 32 37 40 42 46 52 56 60 63 65 66 66 65 67 71 75
91 86 82 84 88 84 74 71 68 53 36 41 58 60 50 41 32 24 22 22 22 25 27 33 46 56 60 60 55 45 34 28 25 23 22 23 25 30 41 54 61 65 70 76 82 88 92 91 89 89 92 92 90 91 91 78 56 42 46 56 58 54 50 44 39 38 40 40 40 41 43 46 49 52 56 59 62 64 65 67 67 66 68 70 73
94 91 85 83 85 84 82 86 91 83 66 56 54 53 56 60 54 47 46 46 46 48 42 39 49 59 67 74 73 65 57 50 46 42 34 30 34 42 53 65 71 73 79 87 92 95 95 92 90 91 91 92 94 98 101 99 85 69 66 71 73 71 68 61 51 44 42 43 46 49 53 58 62 66 68 70 71 71 72 73 73 72 71 70 71
96 98 95 89 85 83 82 84 89 91 84 70 55 43 46 56 62 70 76 74 74 76 65 51 53 61 69 76 76 73 73 72 71 66 56 50 53 59 66 76 84 87 91 97 99 99 98 96 96 95 92 92 96 98 99 101 98 89 84 85 86 86 85 81 72 61 54 51 51 54 61 68 72 76 79 81 82 82 82 81 78 74 71 70 69
95 98 102 98 93 91 87 81 81 84 86 85 75 59 50 53 64 80 90 84 78 74 65 59 63 65 64 67 69 69 72 79 83 79 74 73 74 76 81 88 94 95 96 99 99 99 100 100 100 99 97 95 98 100 99 100 100 98 97 96 96 96 95 94 89 81 73 68 66 67 72 74 74 76 80 86 90 90 86 82 79 76 72 69 66
96 98 103 101 98 98 92 84 83 83 86 90 86 76 72 76 80 83 84 84 82 75 68 65 64 63 63 69 77 80 82 89 94 91 89 90 90 92 96 96 95 95 95 97 99 99 100 100 99 100 100 99 99 100 100 100 100 100 100 100 100 100 99 99 98 95 91 87 86 88 90 87 84 84 86 91 94 92 87 82 80 78 74 69 63
100 102 102 99 99 101 96 91 90 89 92 93 87 83 90 94 91 85 83 85 82 76 73 70 65 70 85 95 98 97 95 97 100 96 93 94 96 97 96 92 92 96 98 98 100 100 99 100 100 100 100 100 100 100 100 100 100 100 100 99 98 98 99 100 99 98 98 98 97 98 97 95 94 94 94 95 94 90 84 80 77 75 72 67 62
100 99 98 97 99 100 99 98 97 94 96 96 90 89 92 90 87 90 91 87 80 76 78 77 69 69 83 95 99 99 96 97 100 98 95 97 99 99 96 94 97 100 100 100 100 100 100 100 100 101 100 100 100 100 100 100 100 100 100 98 96 94 93 93 93 95 97 99 99 99 98 97 97 96 96 96 93 87 83 79 76 73 70 65 61
100 97 97 99 101 100 100 100 100 98 99 100 96 94 94 90 88 91 89 86 88 89 87 85 78 71 72 81 88 91 90 89 92 95 96 96 96 96 98 99 100 99 99 100 100 100 101 100 100 100 100 99 100 100 100 99 99 100 100 99 97 96 93 93 94 97 99 100 100 100 99 98 98 97 97 96 92 88 85 82 79 75 72 67 63
98 98 99 100 100 101 100 100 100 99 99 99 96 94 95 97 96 97 95 93 96 94 85 77 74 71 71 75 76 76 77 79 80 86 93 93 91 94 98 99 99 100 100 101 101 100 100 100 100 100 100 99 100 100 100 99 100 100 99 97 95 92 90 90 90 91 92 92 93 93 92 91 91 91 91 89 87 84 82 79 77 74 71 68 66
98 99 101 100 99 99 100 99 99 98 98 98 97 95 97 99 98 96 95 92 90 87 80 73 68 66 66 70 73 74 75 75 76 81 91 94 93 96 98 98 99 100 100 99 100 100 100 99 99 99 99 98 98 97 96 94 92 90 87 82 78 75 73 71 68 67 65 65 64 64 64 64 64 65 65 65 64 63 61 59 56 54 52 51 51
99 100 99 99 99 98 99 99 99 99 99 100 100 99 98 96 92 89 88 87 86 86 82 76 74 71 70 74 83 88 89 88 88 91 96 98 99 99 99 100 101 101 101 101 100 98 96 93 89 86 83 80 78 75 70 65 61 59 56 53 49 47 44 42 40 38 36 34 33 32 31 30 30 30 31 31 31 30 28 27 25 25 25 25 25
100 100 98 99 100 99 99 100 99 99 99 97 96 96 94 90 87 85 82 80 82 88 88 84 81 81 83 88 94 98 97 96 97 98 99 100 100 99 97 96 94 92 91 89 86 83 79 75 70 66 61 57 53 48 40 32 28 27 25 24 22 20 19 17 17 16 15 14 13 12 11 11 10 10 10 10 10 9 9 9 9 9 9 10 10
100 100 98 99 100 100 100 100 99 97 96 95 94 93 92 90 88 86 83 80 84 92 97 95 91 89 92 97 99 98 96 93 90 87 86 84 82 80 76 72 68 66 65 63 62 61 59 56 53 49 45 40 37 32 27 22 19 16 13 12 11 10 8 8 7 7 7 6 5 5 5 5 4 4 4 4 5 5 4 4 4 4 4 4 4
98 101 100 100 100 100 100 100 99 99 98 98 98 98 98 97 96 95 94 93 95 99 100 99 99 99 99 100 97 93 89 84 78 72 67 63 59 57 55 53 51 51 50 50 49 48 46 45 42 39 35 31 27 23 20 18 15 13 11 9 8 7 6 5 5 5 4 3 3 3 3 3 3 3 3 4 3 3 3 3 3 3 3 3 3
96 97 96 96 97 99 100 100 100 100 100 99 99 99 99 100 100 100 101 100 100 101 100 99 98 97 93 87 80 72 65 60 58 56 54 52 51 49 47 45 44 43 42 40 38 35 33 31 28 25 24 22 19 17 14 12 11 10 9 8 7 6 5 5 4 4 4 4 4 4 4 4 4 3 3 3 3 3 3 3 2 2 2 2 2
93 91 87 84 83 87 94 98 99 100 100 100 100 100 99 99 98 97 95 93 90 87 85 82 79 75 72 69 65 60 54 48 45 43 40 38 37 35 33 32 29 26 25 23 21 19 17 15 13 12 11 10 10 10 9 9 8 7 7 6 6 5 5 5 4 4 4 4 4 4 4 3 3 3 3 3 3 3 3 2 2 2 2 2 2
92 92 88 82 78 79 83 88 91 91 90 89 87 85 83 81 79 77 74 73 72 72 71 70 67 64 62 60 56 52 48 43 39 34 30 25 22 19 17 17 14 12 11 10 9 8 7 7 6 6 6 6 6 6 6 6 6 6 6 5 5 5 5 5 4 4 4 4 4 4 4 3 3 3 3 3 3 3 3 2 2 2 2 2 2
88 85 82 79 78 77 77 77 76 73 71 69 68 67 66 64 63 63 63 64 67 69 69 67 65 62 58 51 44 38 33 30 26 21 17 14 13 11 10 10 9 8 7 6 6 6 6 6 6 6 6 6 6 6 6 6 5 5 5 5 5 5 5 4 4 4 4 4 4 3 3 3 3 3 3 3 3 2 2 2 2 2 2 2 2
80 76 77 78 78 75 71 67 64 61 60 60 60 59 59 59 59 60 61 64 66 66 65 62 59 53 46 39 34 29 25 22 18 15 13 11 10 10 9 8 7 7 6 6 6 6 6 6 6 6 6 6 6 6 6 6 6 6 6 5 5 5 5 5 5 4 4 4 4 4 3 3 3 3 3 3 3 3 3 2 2 2 2 2 2
69 68 69 69 68 66 62 59 58 58 57 57 58 58 58 59 60 60 60 61 59 55 51 46 40 34 29 28 26 25 23 21 18 15 14 12 11 10 9 8 7 7 7 7 7 7 7 6 6 6 6 6 6 6 6 6 6 6 6 6 5 5 5 5 4 4 4 4 4 4 4 3 3 3 3 2 2 3 3 3 3 3 3 3 4
62 62 62 62 61 59 58 57 56 56 56 57 58 59 60 60 59 56 54 52 47 40 32 25 21 18 19 20 20 20 19 17 15 13 11 10 9 9 8 7 7 7 7 7 6 6 6 6 6 6 7 7 7 7 7 7 7 7 6 6 5 5 5 5 5 4 4 4 3 3 3 3 3 3 3 3 3 3 3 3 4 4 4 5 5
61 60 61 63 63 62 61 60 58 58 60 62 62 60 58 55 51 47 43 38 31 24 18 14 13 13 14 14 14 14 13 12 10 9 8 8 7 7 6 7 7 6 7 7 6 6 6 6 6 7 7 8 8 8 8 8 7 7 6 6 6 5 5 5 4 4 3 3 3 3 3 3 3 3 3 3 3 3 4 4 4 5 5 5 5
61 62 63 64 65 65 64 64 65 65 66 67 65 60 53 48 42 37 31 25 19 14 12 11 11 11 11 12 11 11 10 9 8 7 6 6 6 6 6 6 6 7 7 6 6 7 7 7 7 8 9 9 10 9 9 8 7 7 7 6 5 5 5 4 4 4 4 3 3 3 3 3 3 3 3 3 3 3 3 4 4 5 5 6 6
62 61 62 63 66 67 66 66 69 69 67 65 61 54 47 41 35 28 21 16 13 11 11 11 11 10 10 10 10 9 8 7 6 6 6 6 6 6 6 6 6 6 7 7 7 7 7 7 8 9 10 10 10 9 9 8 7 7 6 6 6 5 5 5 4 3 3 3 3 3 3 4 4 4 4 5 5 6 6 7 8 9 10 11 13
62 60 62 66 70 71 70 69 69 66 62 58 52 46 40 34 28 23 18 14 12 11 11 10 10 9 8 8 7 7 7 6 6 6 6 6 6 6 6 6 7 7 7 7 7 8 8 10 11 11 11 11 10 9 8 8 7 7 6 6 6 6 5 4 4 4 3 3 3 4 5 5 6 7 8 9 11 12 13 14 15 16 17 19 20
66 63 65 71 75 73 66 61 58 52 45 40 35 31 28 24 20 18 16 13 12 11 10 9 9 8 8 7 6 6 6 5 6 6 6 6 7 7 7 7 8 8 8 8 9 11 12 13 13 13 12 11 9 9 9 8 7 7 7 6 6 6 5 4 4 4 4 4 5 6 7 8 9 11 12 13 15 16 18 20 21 23 24 25 25
71 69 70 76 79 74 62 52 43 33 24 19 17 16 15 14 14 14 13 11 11 10 9 9 9 8 8 7 7 7 7 6 6 6 6 7 7 7 8 8 8 8 9 10 12 14 15 15 15 14 12 11 11 10 9 9 8 7 7 7 6 5 5 4 4 4 5 6 7 8 8 10 11 12 12 14 16 20 23 26 29 29 30 30 29
80 78 78 81 80 73 61 49 37 24 14 11 10 11 11 11 12 11 10 10 10 9 9 9 9 8 9 9 8 8 8 7 7 8 8 8 9 9 9 9 9 10 12 13 15 16 16 15 15 14 12 12 11 10 9 9 9 8 7 7 6 5 4 4 5 6 7 8 8 8 9 10 11 11 13 16 21 26 31 34 36 34 32 29 27
89 87 83 79 72 61 50 40 30 19 13 11 11 12 12 11 11 10 10 10 10 10 10 10 10 10 10 10 9 10 9 9 9 10 9 10 10 10 10 11 11 13 14 16 16 17 17 16 15 14 13 13 12 11 10 10 9 8 7 6 5 5 5 7 8 9 9 8 8 9 10 10 11 14 20 25 31 36 39 39 37 33 29 26 25
90 81 70 59 50 40 32 25 20 14 12 12 12 12 11 11 11 11 11 12 12 12 12 12 11 11 12 11 11 12 12 11 11 11 11 11 12 12 12 14 15 16 18 19 19 19 19 18 16 15 14 13 12 11 10 10 8 7 6 5 6 7 9 11 12 12 11 11 11 12 14 17 22 28 34 39 43 44 41 36 31 28 27 27 28
72 55 40 30 25 21 16 14 13 12 12 13 12 12 12 12 12 12 13 13 13 12 12 12 12 12 13 13 13 13 13 12 12 11 12 13 14 15 16 17 19 20 22 22 22 21 20 19 18 16 15 13 13 11 10 9 8 6 6 7 9 11 12 13 13 14 15 17 18 20 24 29 33 38 42 46 46 42 35 30 28 27 27 30 32
42 30 21 17 15 13 12 12 13 15 15 14 13 14 14 13 13 14 13 13 14 13 13 14 15 15 15 15 14 14 14 13 13 14 15 16 17 19 20 22 25 26 27 26 26 24 22 20 18 17 15 14 13 11 10 8 7 6 8 10 13 13 12 12 12 14 17 20 22 26 30 33 36 41 46 45 40 34 30 29 28 26 27 31 35
26 22 18 16 16 16 16 16 16 16 16 15 14 15 15 15 15 15 14 14 15 15 15 15 16 17 18 18 17 17 17 17 18 19 20 21 22 24 26 28 30 30 31 30 28 25 23 21 19 17 15 14 12 10 9 8 7 7 10 13 13 12 11 11 14 17 20 23 26 28 30 33 38 43 43 38 32 29 28 27 24 24 28 34 39
30 26 23 20 20 19 18 17 16 16 16 16 15 15 15 15 15 15 15 16 16 17 17 18 20 22 22 22 21 21 21 22 23 25 26 28 29 31 32 33 33 32 32 31 28 25 23 21 19 17 15 13 11 10 9 7 7 8 11 13 13 11 10 12 16 20 23 25 25 24 26 31 36 38 35 30 27 26 25 23 22 25 31 38 41
35 32 28 25 23 21 19 19 19 19 18 17 16 16 16 16 16 17 17 18 19 19 20 21 23 24 25 24 23 22 22 23 25 27 28 30 32 34 35 35 35 34 33 30 28 25 23 21 19 17 15 13 11 10 9 7 7 9 12 13 12 10 11 14 19 23 23 21 18 18 22 28 32 30 27 25 24 23 21 21 22 25 30 36 42
Wind_Speed
17 16 16 15 15 15 14 14 13 13 13 12 11 11 10 10 10 10 10 10 9 9 9 9 8 8 7 7 6 6 6 6 6 6 6 6 5 6 6 6 6 6 6 7 7 8 8 8 7 6 6 7 8 7 7 7 8 9 10 11 11 10 11 11 11 12 12 13 13 14 15 16 16 16 15 15 15 14 15 16 17 17 17 16 17
19 19 18 17 16 16 15 15 14 14 13 13 12 12 11 11 11 10 10 10 10 10 10 10 9 8 7 7 7 6 7 7 7 8 8 7 7 7 7 7 8 8 8 9 9 9 9 9 9 8 8 8 8 8 8 9 10 11 12 12 13 13 13 13 13 14 15 15 15 15 15 16 17 18 18 18 17 17 17 18 19 18 18 16 16
21 20 19 18 18 17 16 16 15 15 14 14 13 13 12 11 11 11 10 10 10 10 10 10 9 9 8 8 8 8 8 9 9 9 9 9 8 8 8 9 9 9 9 10 10 10 10 10 11 10 10 9 9 9 10 11 12 12 13 14 14 14 15 15 16 17 17 17 17 17 17 18 18 19 20 20 19 19 19 19 18 19 18 17 15
23 22 21 20 19 19 18 17 17 16 16 15 14 14 13 12 11 11 10 10 10 9 9 10 10 10 10 9 10 10 10 9 10 11 10 10 10 10 10 10 10 10 10 11 12 12 12 12 12 12 11 11 11 11 12 13 13 14 14 15 15 16 16 17 17 18 19 19 19 19 19 20 20 20 21 21 20 19 19 18 17 17 18 17 16
23 23 23 22 21 20 20 19 19 18 18 17 16 15 14 13 13 12 12 11 11 10 10 10 11 12 11 11 11 12 12 10 11 12 11 11 12 12 12 12 12 12 12 13 13 13 13 13 13 14 13 12 12 13 14 14 14 15 16 17 17 17 18 18 18 18 19 20 21 20 20 21 21 21 21 21 20 18 18 17 16 15 15 15 16
24 24 23 23 22 22 21 20 20 20 20 19 18 17 16 15 14 13 13 13 13 13 13 13 15 15 13 13 13 14 14 12 11 13 13 13 13 14 14 14 14 14 14 15 15 15 14 15 15 15 15 15 14 14 14 15 15 16 17 17 18 18 18 18 18 19 20 20 21 21 21 22 22 21 21 21 21 20 19 17 16 14 13 14 16
25 25 24 23 23 23 22 22 22 22 21 20 19 18 17 16 16 15 15 15 15 15 14 13 16 17 15 15 16 17 17 17 16 15 14 13 14 16 17 16 15 16 16 16 16 16 16 16 17 17 17 17 17 16 16 16 17 18 18 18 18 19 19 19 19 20 21 21 22 22 22 23 23 22 22 22 23 22 21 20 18 16 15 16 17
26 26 25 24 24 24 24 24 23 23 22 21 19 19 18 18 18 18 17 17 17 17 16 15 17 18 17 17 18 19 19 19 18 17 16 16 17 18 18 17 16 17 17 17 17 18 18 18 19 20 20 20 19 19 19 19 19 19 20 20 20 21 21 22 22 22 22 23 23 23 24 25 25 24 24 24 24 23 23 22 21 20 20 20 21
26 27 27 26 26 26 25 25 24 23 22 21 20 20 20 21 21 21 20 19 19 19 18 18 19 18 18 18 19 19 20 20 19 18 19 19 19 20 20 18 17 17 17 18 19 19 19 20 21 22 22 22 22 22 22 22 22 22 22 22 22 22 23 23 23 24 24 24 24 24 25 26 27 26 26 26 25 24 24 23 24 24 24 25 25
27 27 28 28 28 28 27 26 25 23 22 22 22 22 23 23 24 23 22 21 21 20 20 20 20 20 19 19 19 19 19 20 21 21 21 21 21 21 21 20 19 19 19 19 20 20 21 22 23 23 24 24 25 24 24 25 25 25 25 24 24 24 24 24 25 25 25 25 26 26 27 27 28 27 26 26 26 25 25 25 25 25 26 26 27
28 28 28 28 28 28 27 26 25 25 25 25 25 25 25 24 24 23 22 21 21 20 20 21 21 20 21 20 20 20 20 21 22 23 24 23 23 22 22 21 21 21 21 21 22 22 23 24 24 25 26 26 26 26 26 26 26 27 27 27 26 26 25 25 26 26 26 26 26 27 27 28 29 29 27 27 26 26 26 26 26 27 27 27 29
29 28 28 28 28 28 28 28 28 27 28 28 27 26 26 24 23 22 21 21 21 21 22 21 21 21 21 21 21 22 22 22 23 24 25 25 24 24 23 23 23 23 22 23 24 25 25 26 26 27 27 28 28 28 27 27 27 27 27 27 26 25 25 26 26 27 27 26 25 26 26 26 27 29 28 27 27 27 28 28 28 28 28 29 31
30 30 30 30 30 30 30 30 31 32 31 29 28 27 26 24 23 22 22 23 22 23 23 22 22 22 23 23 23 23 23 24 25 25 26 26 26 26 25 24 24 24 24 24 25 26 26 27 27 28 30 30 31 31 30 29 29 28 28 28 27 26 27 27 26 26 26 26 26 26 27 26 26 27 29 29 28 28 29 30 30 30 30 31 32
31 32 32 32 33 33 33 33 33 33 32 31 29 28 26 25 24 23 23 23 23 24 24 24 24 25 25 26 25 25 25 25 26 27 28 29 28 27 26 26 26 26 26 26 27 27 27 27 28 29 31 32 32 32 32 32 32 31 31 31 31 31 31 29 28 27 27 27 27 27 27 27 26 27 28 29 30 30 30 31 31 32 32 32 33
34 34 33 34 36 36 35 36 34 33 33 33 32 31 28 27 26 25 24 25 26 25 25 25 26 26 27 28 27 27 27 27 27 28 29 30 30 29 28 27 27 27 27 27 28 29 29 29 29 30 31 32 32 32 33 34 35 34 34 34 34 34 34 32 31 30 29 29 28 28 28 28 28 28 29 30 30 31 32 33 34 34 34 35 36
38 37 36 35 36 36 37 37 35 34 35 36 35 33 31 28 26 25 26 27 27 27 26 27 28 29 29 29 29 29 29 28 28 28 28 29 30 29 28 27 27 27 27 28 28 29 31 31 31 32 32 32 32 33 34 35 36 36 36 35 35 35 34 34 34 34 33 32 31 30 30 30 30 30 30 31 32 33 34 35 36 37 37 37 38
40 39 38 37 36 37 37 36 36 36 36 36 36 35 33 30 28 26 26 27 28 28 28 28 29 30 30 29 29 29 30 29 28 27 27 27 28 28 28 28 28 29 30 30 31 32 33 34 33 33 32 33 34 35 37 37 36 37 36 36 35 35 35 35 36 36 36 35 34 34 34 33 33 32 33 33 33 34 35 36 37 37 37 37 38
41 41 41 40 39 39 39 37 36 37 38 37 36 36 35 34 30 27 27 29 30 29 28 29 30 30 30 29 28 29 29 29 29 28 27 26 27 27 28 29 30 32 33 34 35 36 37 36 36 36 35 35 36 37 38 38 37 37 37 36 36 37 36 37 37 37 37 36 37 37 36 36 36 36 36 35 35 36 36 35 36 36 37 37 36
44 45 44 43 42 43 43 41 39 39 40 39 38 37 36 35 33 31 30 32 32 30 29 31 31 31 30 30 30 30 31 31 31 30 29 28 29 29 28 31 33 34 37 40 39 37 37 36 36 36 36 36 36 37 38 39 38 38 38 39 39 39 39 39 38 38 37 37 37 38 38 38 38 38 38 38 38 38 37 36 36 36 36 36 35
46 45 45 44 45 46 45 43 43 43 42 42 39 36 36 37 37 35 33 33 33 33 33 33 32 30 30 31 32 33 33 33 33 33 32 31 31 29 29 34 36 34 37 41 37 31 31 32 32 33 34 35 35 34 34 35 37 39 40 41 42 42 42 41 40 38 38 37 37 38 38 39 39 39 39 39 39 38 38 37 37 37 36 36 35
46 45 45 46 48 48 47 46 46 45 45 45 42 38 38 40 39 36 35 35 35 35 34 33 31 29 30 35 39 38 35 35 36 35 33 32 32 30 30 34 34 33 35 38 34 29 30 32 32 33 34 35 36 34 33 34 36 39 41 42 42 42 42 41 40 39 39 38 38 39 39 40 40 40 40 40 40 39 39 39 39 39 38 37 37
47 47 48 48 48 49 49 48 47 47 47 47 43 40 40 40 36 34 36 37 36 35 34 32 29 28 29 33 38 37 34 35 38 39 36 33 33 34 35 36 37 37 38 38 36 35 36 37 36 36 36 37 38 37 36 36 36 37 39 41 42 42 41 40 40 39 39 40 40 40 40 40 41 42 42 42 41 40 40 39 39 39 39 39 38
44 46 48 49 48 49 51 51 48 47 47 45 43 42 42 40 37 36 36 35 35 35 35 32 30 33 36 35 34 34 33 32 35 40 42 39 37 37 38 38 40 41 41 40 40 40 40 39 39 39 39 38 39 39 39 38 37 38 40 41 42 42 41 40 39 39 39 40 40 41 41 41 41 42 42 41 41 40 39 39 39 39 39 39 39
38 45 48 47 46 47 48 47 46 45 44 44 42 40 38 38 37 35 34 33 33 33 32 31 31 36 41 43 42 42 39 33 32 36 40 39 38 40 41 40 41 41 41 40 41 41 40 39 38 37 37 37 37 37 37 37 38 38 39 39 39 38 37 36 35 35 36 37 38 39 40 41 41 41 41 41 40 40 40 40 40 40 40 41 41
26 34 38 40 41 42 43 43 43 40 38 37 36 34 34 35 34 33 33 33 33 31 30 31 33 35 39 42 42 42 42 39 37 37 37 35 35 38 40 39 39 40 39 38 38 38 37 35 34 33 33 33 33 31 29 28 29 30 31 31 31 31 31 31 31 31 32 33 35 37 38 39 39 39 40 40 40 41 41 42 42 42 43 43 44
22 25 28 29 32 34 36 38 38 36 34 35 35 34 34 33 32 32 32 33 33 33 31 31 32 34 37 39 39 38 38 38 38 40 38 35 34 35 35 35 35 36 35 33 31 29 27 26 25 24 24 24 24 23 23 23 24 25 26 27 28 28 29 30 31 32 33 34 35 37 38 39 40 40 41 41 42 42 43 44 44 45 45 46 46
18 20 21 22 25 28 29 30 32 35 36 37 38 37 36 34 34 33 32 32 33 34 33 32 33 34 35 35 34 33 31 30 30 30 29 29 30 31 30 28 28 27 26 24 23 21 20 20 20 20 20 21 21 22 22 22 23 24 26 28 29 30 31 33 34 35 36 37 38 39 40 41 42 43 44 44 45 45 46 47 47 48 49 49 50
16 15 16 19 24 27 28 28 30 32 32 32 33 35 36 37 37 36 35 34 35 35 35 35 34 34 34 33 31 28 25 24 23 23 22 22 23 23 23 22 22 21 21 21 21 21 21 21 22 22 22 23 23 23 22 22 23 24 26 28 30 32 34 35 37 37 38 40 41 42 43 44 45 46 47 48 48 49 50 50 51 52 52 53 53
21 21 20 22 24 24 24 25 26 28 29 30 31 32 34 35 37 37 37 37 38 38 37 36 35 35 34 33 31 28 24 22 20 20 20 20 21 22 22 22 22 22 22 23 23 23 23 23 23 24 24 24 25 25 26 26 26 27 29 31 33 35 37 38 39 40 41 42 44 45 46 47 48 49 50 51 52 53 53 54 55 55 56 57 57
16 20 22 24 25 24 24 25 26 26 27 26 27 28 30 32 33 34 35 35 36 36 34 32 32 32 31 29 26 24 22 21 20 19 19 20 21 22 22 23 23 23 23 23 24 24 24 25 25 25 25 26 27 28 29 30 30 31 32 34 36 38 39 41 42 43 44 45 46 48 49 50 52 53 54 55 56 57 57 58 59 59 60 60 61
9 12 13 15 16 17 17 18 19 20 20 19 20 21 23 24 25 26 26 25 25 24 23 22 22 22 21 19 17 16 16 16 16 17 18 19 20 21 21 21 22 22 23 24 25 25 26 26 26 27 27 28 29 30 31 32 34 35 36 38 39 41 42 44 45 47 48 50 51 52 54 55 56 57 59 60 61 61 62 63 64 64 65 65 65
9 9 9 9 10 11 12 12 14 15 15 15 16 17 17 17 17 16 15 14 13 13 12 12 13 13 14 14 14 14 14 14 15 16 16 17 18 19 19 19 19 20 21 22 23 24 25 26 27 27 29 30 31 33 34 36 37 39 41 42 44 45 46 48 49 51 53 54 55 57 58 59 60 61 62 63 64 65 66 67 68 68 69 69 70
11 10 9 8 9 11 12 12 12 12 11 11 11 11 11 11 10 10 10 10 11 11 11 11 12 13 13 13 13 13 14 14 15 15 15 16 17 17 18 19 19 20 20 21 22 24 25 26 28 29 31 33 34 36 38 40 41 43 45 47 48 49 50 52 53 54 55 57 58 59 60 61 62 64 65 66 67 68 68 69 70 71 71 72 72
12 11 10 9 10 12 13 12 11 10 10 11 11 11 12 12 12 13 13 13 13 13 12 13 13 13 13 12 13 13 14 14 15 15 15 16 17 18 19 20 20 21 22 23 24 26 27 29 31 32 34 36 38 41 43 44 46 48 49 51 52 53 53 54 55 56 57 58 60 61 62 64 65 67 68 69 70 70 71 72 73 73 74 74 75
11 10 10 10 11 12 12 11 11 12 12 12 13 13 14 14 14 14 14 13 13 12 12 13 12 12 12 12 13 14 14 15 16 17 17 18 19 20 21 22 23 23 24 26 27 29 30 32 34 35 37 40 42 44 46 47 49 51 52 53 54 55 55 56 58 59 60 61 63 64 65 67 68 70 71 72 73 74 74 75 75 76 76 77 77
12 11 11 11 12 12 12 13 13 13 13 14 14 14 14 14 14 14 13 13 12 11 11 12 12 12 13 14 14 15 17 17 18 19 20 21 22 23 23 24 25 26 27 29 30 31 33 34 36 38 40 42 44 46 47 49 50 52 53 54 55 56 57 58 59 61 62 64 66 68 69 71 72 74 75 75 76 77 77 77 77 78 78 78 78
14 13 13 14 14 14 15 15 15 15 15 15 14 14 13 13 13 13 13 12 12 11 12 12 13 14 15 16 17 18 19 19 20 21 22 23 24 25 25 26 27 28 30 31 32 34 35 37 38 40 42 44 46 48 49 51 52 53 54 55 56 56 57 58 60 62 64 66 69 71 72 73 75 76 76 77 77 78 78 78 78 77 77 77 77
16 15 15 16 16 17 17 17 16 16 15 15 14 14 14 13 13 13 13 13 12 12 13 14 16 17 18 19 20 20 21 21 22 23 24 24 25 26 27 28 29 31 33 34 36 37 39 40 41 43 44 46 48 50 52 53 54 55 55 56 56 57 58 59 62 64 67 69 70 72 73 73 74 75 75 76 76 77 77 76 76 75 75 74 73
16 16 17 17 17 17 17 17 16 16 15 15 15 14 14 14 14 14 14 14 13 14 15 17 18 19 20 21 22 22 23 24 24 25 25 26 27 28 29 30 32 34 36 37 39 40 42 43 45 46 47 48 50 52 53 54 55 55 56 56 57 58 60 63 65 68 70 71 71 71 71 71 71 72 72 72 71 71 70 69 68 67 66 66 65
17 17 17 17 17 17 17 16 16 16 15 15 15 15 14 15 15 14 14 14 15 17 18 19 20 21 23 23 24 25 25 26 26 26 27 28 29 31 32 34 35 37 38 40 41 43 45 46 47 48 50 51 53 54 54 55 55 56 56 57 59 61 63 66 68 70 71 71 70 69 69 68 67 66 65 63 62 61 60 59 59 59 59 59 60
18 18 17 17 16 16 16 16 16 16 15 15 15 15 15 15 15 15 15 16 18 19 21 22 23 24 24 25 26 26 27 27 28 28 29 31 33 34 36 37 39 40 41 43 44 46 47 48 49 50 52 54 55 55 56 56 57 57 58 60 61 63 65 67 69 69 69 68 67 65 64 63 61 59 57 56 56 56 56 57 58 58 59 60 60
19 18 18 17 17 17 17 16 16 16 15 15 16 16 16 16 16 17 17 19 20 21 23 24 24 25 26 26 27 27 28 29 30 31 32 34 35 37 39 40 42 43 44 45 46 47 48 49 51 52 54 55 56 56 57 58 58 60 61 62 63 65 66 67 67 66 65 64 63 61 59 57 56 56 56 57 57 58 59 59 60 60 60 61 61
19 19 19 18 18 18 18 18 17 17 16 17 17 17 18 18 19 19 20 21 22 23 24 24 25 25 26 27 27 28 29 30 32 33 35 36 38 39 41 42 43 44 45 47 48 49 50 51 52 54 55 55 56 57 58 58 60 61 62 63 64 65 65 65 64 62 61 61 60 58 56 55 56 57 59 60 60 60 60 60 59 59 58 58 57
20 20 21 20 20 20 20 19 19 19 18 19 19 19 19 20 20 21 22 22 23 23 24 24 25 25 26 27 28 29 30 32 33 35 37 38 40 41 42 43 44 45 46 48 49 50 51 53 54 55 55 56 57 58 58 59 60 60 61 62 63 63 62 61 60 59 59 58 58 57 57 57 59 61 62 62 62 61 60 58 57 56 54 53 54
21 21 22 21 21 21 21 21 21 20 20 20 21 21 21 21 21 22 22 22 23 24 24 25 26 27 28 29 29 30 32 33 34 36 37 39 40 42 43 44 45 47 48 49 50 51 52 54 54 55 56 57 57 58 58 59 59 59 60 60 60 59 58 57 57 57 57 57 57 58 59 60 61 62 62 61 59 58 57 55 53 51 51 52 53
22 22 22 22 22 22 22 22 22 21 21 22 22 22 22 22 22 22 22 23 24 25 26 27 28 28 29 30 31 32 32 33 34 36 37 39 41 43 44 46 47 49 49 50 51 52 53 54 54 55 56 57 57 58 58 58 58 58 57 57 55 55 54 54 55 55 55 56 57 58 59 59 58 57 55 54 53 52 50 48 47 47 48 50 49
23 23 23 23 23 22 22 22 22 22 22 22 23 23 23 23 23 23 24 25 26 27 28 29 30 30 31 32 32 33 34 35 36 37 38 40 42 44 46 47 49 49 50 51 52 52 53 53 54 55 55 56 57 57 56 56 55 55 54 52 51 51 52 53 52 53 53 54 54 54 54 53 51 50 49 49 48 45 43 43 44 46 47 47 45
22 22 22 22 22 22 22 22 22 22 22 23 23 23 24 24 25 25 26 27 28 29 30 31 32 32 33 34 34 35 36 37 38 38 40 42 44 45 46 47 48 49 50 51 52 52 52 53 53 54 55 55 55 54 54 54 53 52 51 50 50 51 51 51 51 51 51 50 49 49 48 47 46 46 45 43 41 39 40 41 43 44 45 44 42
21 21 22 22 21 21 22 22 22 23 23 24 25 25 25 25 26 26 27 28 29 31 32 32 33 34 34 35 35 36 37 38 39 41 42 44 46 47 47 48 48 49 50 51 51 52 52 53 53 53 53 53 52 52 52 52 51 50 49 49 49 50 50 50 50 49 47 46 45 44 43 43 43 41 39 37 36 37 39 41 42 42 42 41 40
20 20 21 21 21 21 22 23 23 24 25 25 26 27 27 27 27 28 29 30 32 33 33 34 35 35 36 36 37 37 38 40 42 43 45 47 48 48 49 49 49 50 51 51 52 53 53 54 54 54 53 52 51 51 51 50 49 48 48 48 48 49 48 48 47 45 43 42 42 41 40 39 37 35 33 32 34 36 38 40 40 41 40 39 38
19 20 20 21 21 22 22 23 24 25 26 27 28 28 29 29 30 31 31 32 33 34 35 35 36 37 37 37 38 39 40 41 44 46 47 48 49 49 49 49 50 51 51 52 52 52 53 53 53 53 52 51 50 50 50 49 48 47 47 47 47 47 46 45 44 42 40 40 39 38 36 34 31 29 30 31 34 36 38 39 39 39 38 37 36
Wind_Direction
207 203 201 200 198 195 192 191 191 190 190 189 189 190 190 189 190 191 188 189 192 193 194 196 197 198 197 198 201 204 207 210 213 219 227 235 239 244 252 259 263 265 268 271 275 280 284 289 296 301 305 306 310 315 313 307 303 303 307 311 315 320 323 323 321 318 316 315 317 318 320 323 325 327 328 331 332 330 327 325 327 329 331 336 340
211 208 205 203 203 202 198 196 195 196 196 194 194 196 197 197 199 200 199 197 199 201 202 204 206 206 207 210 215 220 222 223 227 237 243 245 247 251 255 261 264 265 268 272 276 281 285 291 297 301 304 305 305 306 304 301 299 300 304 306 309 311 312 313 314 315 314 313 314 316 317 319 320 321 322 323 324 324 323 322 324 327 329 333 337
216 213 210 208 208 207 206 204 202 203 203 201 201 202 204 205 206 208 210 208 206 207 208 209 212 214 214 216 221 226 231 235 238 244 252 255 256 257 258 260 263 266 270 274 277 278 281 286 290 294 297 297 296 297 297 296 297 299 301 303 304 304 304 307 309 310 311 310 311 312 313 314 314 313 314 316 318 320 320 320 321 322 324 328 334
219 217 214 213 212 212 212 212 211 210 210 209 207 207 207 209 211 212 214 214 214 214 215 215 217 220 220 221 227 230 231 239 245 246 249 253 256 256 257 259 260 263 265 269 273 275 277 281 285 289 293 293 293 294 294 294 296 297 296 297 297 298 299 301 304 307 309 310 310 310 310 310 308 308 308 309 311 313 315 317 317 318 320 325 331
222 221 219 218 216 216 216 217 217 216 216 216 214 213 212 213 214 215 218 221 222 224 227 228 225 225 229 233 239 242 239 239 250 259 260 259 259 261 262 263 264 266 269 270 272 276 280 283 287 289 292 293 294 295 295 296 297 298 297 296 297 299 300 301 305 308 309 310 309 309 309 307 306 306 306 306 306 308 309 311 313 316 319 322 326
226 224 223 221 221 220 220 220 221 221 221 220 219 219 219 219 219 221 224 227 228 229 232 236 237 236 239 243 243 244 245 244 252 263 264 261 268 274 274 272 273 273 275 277 278 281 283 283 286 288 290 292 293 294 295 296 298 298 298 299 300 301 302 304 305 308 309 308 308 308 308 307 307 307 307 306 305 305 306 306 307 311 313 314 317
229 228 226 224 224 224 224 224 225 225 225 224 223 223 224 226 228 228 230 232 234 235 233 235 240 239 240 244 241 237 238 242 246 249 250 254 269 281 281 280 280 280 280 282 283 284 285 286 287 287 288 290 292 292 293 293 295 296 296 297 299 301 303 303 304 305 306 306 306 305 304 304 305 306 307 305 304 304 305 304 304 306 307 307 312
230 230 229 228 227 227 226 227 228 230 230 229 229 229 230 231 233 233 233 234 236 238 235 232 232 231 233 242 246 243 241 244 247 249 251 256 264 273 277 278 280 281 281 282 283 284 285 286 286 287 289 291 292 291 291 291 291 292 293 295 297 298 300 300 301 302 302 302 302 302 302 301 301 302 303 303 302 302 303 303 303 304 306 307 309
233 231 230 229 228 228 228 228 230 232 234 235 235 234 233 233 234 233 232 233 234 236 237 237 237 235 237 243 247 247 246 247 249 252 255 258 263 269 272 272 273 275 277 278 280 282 282 283 285 287 289 289 289 288 288 289 289 289 290 291 292 293 294 295 296 298 298 297 297 297 298 299 299 301 302 302 302 301 301 301 301 301 303 305 306
233 233 230 228 228 229 229 229 231 232 233 235 236 235 235 234 234 234 232 233 235 237 238 241 243 243 244 246 248 248 248 247 249 252 255 260 266 272 273 272 270 270 272 274 276 277 279 280 282 284 285 286 286 287 287 287 287 288 289 289 289 290 290 291 291 291 291 291 290 290 291 293 295 298 299 300 300 300 299 299 298 299 301 302 303
231 232 233 233 233 234 234 233 233 232 232 233 234 234 235 235 236 237 237 236 237 241 243 243 245 247 248 250 253 254 254 252 251 252 254 259 265 268 270 271 272 272 271 272 273 273 275 276 278 281 283 285 285 285 286 287 288 289 290 290 290 289 290 290 290 288 288 289 289 289 289 290 291 294 295 295 294 294 294 294 295 297 298 299 300
232 230 230 233 234 234 236 235 234 232 232 233 235 237 238 238 239 241 242 241 239 240 243 244 245 248 249 251 254 257 258 258 258 257 258 262 266 268 268 270 272 273 274 275 275 275 275 276 278 281 283 284 284 285 286 288 289 291 291 290 290 290 290 290 290 289 290 291 291 291 290 290 290 291 293 293 291 290 289 290 291 292 294 295 295
231 227 228 232 233 231 232 233 233 233 233 233 235 239 241 241 242 243 244 245 242 241 244 247 247 248 249 249 251 254 257 259 261 262 263 265 266 268 269 270 271 271 273 276 278 278 278 279 280 281 281 282 283 284 286 286 288 289 290 288 289 290 290 290 289 287 287 288 289 290 290 289 287 288 290 291 291 290 290 291 291 291 292 293 294
229 227 228 233 235 232 229 230 232 235 236 236 235 235 237 239 239 240 243 245 245 246 248 251 251 251 251 251 251 252 254 257 260 264 266 268 269 270 270 269 269 270 272 274 277 279 281 283 283 283 283 283 284 285 285 285 286 288 289 288 288 289 290 290 288 285 283 283 284 286 286 287 285 285 286 288 290 291 291 292 292 292 292 293 293
231 229 229 233 236 236 232 230 230 232 235 236 235 232 232 235 238 239 241 243 245 249 252 254 255 255 256 257 256 254 254 255 258 262 267 271 273 273 272 271 271 272 275 276 277 278 281 283 285 285 286 288 288 288 288 287 288 289 290 290 290 291 292 292 290 288 285 283 282 282 284 285 285 284 285 286 287 288 290 290 290 291 291 291 291
233 231 230 232 235 236 236 233 230 230 233 235 235 233 232 234 238 240 242 244 246 250 253 254 255 257 258 259 260 260 260 259 259 262 266 270 273 274 274 273 273 275 278 279 278 279 279 281 283 286 288 290 290 291 290 289 289 289 289 290 291 292 293 293 293 292 291 289 287 286 285 284 284 284 284 284 285 286 287 288 289 290 291 291 290
232 233 232 231 232 235 236 234 232 233 234 235 236 236 236 238 241 245 249 252 253 252 253 256 257 259 262 263 264 265 265 264 264 263 264 266 270 273 275 276 277 277 277 277 278 278 277 279 281 284 286 287 289 290 289 288 287 287 287 288 289 292 293 293 293 293 293 292 292 291 289 288 287 286 285 285 285 285 285 286 287 288 289 290 290
230 233 234 231 231 234 234 233 235 237 237 237 239 240 241 242 244 247 249 253 254 253 255 259 260 261 264 266 268 268 266 265 266 267 268 269 270 273 275 277 279 280 278 276 277 277 276 278 280 281 282 283 286 288 288 286 283 282 283 285 287 289 290 289 289 289 289 290 290 291 291 291 290 290 289 288 287 286 286 286 286 287 287 287 287
226 229 233 233 233 235 234 232 235 239 240 241 243 243 244 244 245 245 244 245 248 252 255 258 260 262 265 267 270 269 267 267 267 267 268 269 269 272 276 278 279 280 276 274 274 275 275 278 280 280 280 281 283 286 287 286 284 281 281 282 284 285 286 286 285 285 285 286 287 288 288 288 289 290 290 290 289 288 287 287 287 287 286 286 286
226 227 232 237 238 238 237 235 235 238 240 242 245 248 248 244 242 243 243 244 248 252 254 256 260 264 268 270 271 269 267 266 266 267 268 269 270 273 277 278 277 272 267 267 271 273 274 277 281 282 282 282 282 283 284 285 284 283 282 282 282 283 283 284 284 284 284 284 284 285 285 286 287 288 288 288 287 286 286 286 286 286 285 285 285
228 227 232 241 243 242 240 237 236 238 239 241 246 250 246 239 238 243 247 248 251 253 254 255 258 264 270 269 265 264 265 262 261 263 264 264 264 263 262 264 266 263 260 264 269 270 272 276 279 281 283 283 282 281 280 280 280 280 279 279 280 280 281 281 282 282 282 282 283 283 284 286 287 288 288 287 284 283 283 283 283 283 282 282 283
227 227 231 240 245 243 240 238 237 238 239 241 244 244 241 238 238 243 247 249 252 255 257 257 255 256 260 258 252 254 258 255 253 257 259 256 253 252 253 256 258 260 264 268 270 272 275 276 277 278 281 283 282 280 277 276 275 273 273 274 274 276 277 278 279 280 281 281 282 282 283 285 285 285 285 284 282 281 280 280 281 281 281 282 282
228 229 233 241 245 244 242 240 240 239 239 240 240 239 239 240 241 243 247 251 254 255 256 257 254 250 252 255 257 261 262 250 243 247 251 251 250 251 255 258 257 258 263 267 269 274 276 276 275 277 279 280 281 281 279 277 273 271 271 272 273 275 277 279 281 283 283 282 282 282 282 281 281 281 280 280 279 280 280 280 281 282 282 282 282
236 236 237 242 244 243 242 242 241 239 238 238 238 237 238 239 239 242 246 248 251 253 253 255 255 253 256 262 269 275 273 261 248 245 246 252 258 256 254 256 258 259 261 264 266 269 271 271 272 275 277 279 281 281 281 278 275 273 274 275 276 277 280 282 285 286 286 285 284 284 283 282 282 281 281 280 280 281 281 282 282 282 282 282 282
241 239 238 240 241 241 241 240 239 237 236 235 235 235 235 234 234 238 241 243 250 257 259 260 262 262 264 267 271 277 278 274 271 267 267 271 272 262 255 255 259 262 264 266 268 269 269 270 272 274 276 278 278 275 272 271 270 271 272 273 276 279 283 286 288 289 288 287 286 285 285 285 284 283 282 282 282 282 282 282 282 281 281 280 280
238 233 232 235 237 237 237 236 235 233 233 233 231 231 232 233 236 242 247 251 256 261 262 264 266 267 269 272 275 279 280 278 276 277 278 277 271 262 258 259 262 265 268 270 271 269 268 269 272 274 276 277 276 274 273 274 277 279 280 281 283 286 287 288 289 288 288 287 287 287 287 287 287 286 285 285 284 284 284 284 283 283 283 282 281
238 229 223 224 227 229 231 229 227 226 228 230 231 233 236 239 242 247 252 255 259 261 262 262 264 265 268 272 275 277 278 276 273 273 272 268 262 259 259 261 262 265 268 270 272 272 274 278 281 284 286 286 287 288 291 292 293 294 293 293 293 293 293 292 292 291 292 292 292 292 292 292 292 292 291 291 290 289 289 288 288 287 287 286 285
224 218 209 205 208 213 216 217 218 222 226 231 236 239 242 244 246 248 250 253 257 261 261 259 260 261 264 267 270 273 273 273 273 273 272 268 266 267 269 271 273 275 278 280 284 288 291 293 294 295 296 297 298 299 300 300 299 297 296 295 295 295 294 294 295 296 296 296 296 296 296 296 295 294 294 293 292 291 291 290 289 288 288 287 286
217 216 213 210 210 214 219 223 229 235 240 243 245 246 246 247 248 248 249 251 254 256 256 255 256 258 259 260 262 264 267 271 275 279 279 278 279 280 283 285 289 291 292 294 296 297 299 300 300 301 302 302 303 302 301 300 299 298 298 297 296 296 296 296 296 297 297 297 296 296 295 294 293 292 292 291 291 290 290 289 289 288 288 287 286
215 216 218 221 224 226 228 231 234 238 240 241 241 242 244 244 244 244 244 245 247 248 247 247 249 252 253 254 256 260 265 270 275 280 284 286 287 289 291 294 297 298 300 300 301 301 302 302 303 303 304 303 303 302 301 300 299 298 297 296 296 296 295 296 296 296 295 295 294 294 293 293 292 292 292 291 291 290 289 289 288 287 287 286 285
172 184 195 203 208 211 213 215 218 220 223 225 226 228 231 231 232 233 234 236 237 239 239 240 243 247 251 256 263 271 277 282 285 288 290 292 294 296 298 299 301 302 302 303 303 304 305 306 306 306 305 304 303 301 300 299 299 298 297 296 296 295 295 296 296 295 295 294 294 293 293 293 293 292 292 291 290 290 289 288 288 287 286 285 284
172 173 178 180 181 187 194 199 204 208 212 215 218 219 220 222 224 226 227 230 235 239 244 251 256 261 267 274 279 282 285 289 292 294 297 299 301 303 304 306 306 305 305 304 304 305 305 305 305 304 303 302 301 300 299 299 299 299 298 298 297 297 298 298 297 297 296 296 295 295 295 294 293 292 291 291 290 289 289 288 288 287 287 286 285
200 199 201 198 192 191 193 197 203 208 212 217 220 223 228 232 237 241 247 254 260 265 268 269 271 273 275 278 280 283 285 288 291 295 299 302 304 305 305 305 305 304 303 303 303 303 303 302 302 302 302 302 302 302 301 301 301 300 300 299 299 299 299 299 298 298 297 296 296 295 295 294 293 292 291 291 290 290 289 289 288 287 287 286 285
214 217 220 215 204 199 198 201 208 216 223 229 234 239 242 247 251 256 261 265 267 268 268 267 268 270 272 274 278 282 285 288 291 294 295 296 296 297 298 298 299 299 300 300 300 301 301 302 302 303 303 303 303 303 303 303 303 303 302 302 302 301 301 300 299 298 297 296 295 295 294 293 293 292 292 292 291 290 290 289 288 287 286 285 285
224 224 221 214 207 207 211 217 224 229 232 234 238 241 244 247 251 254 257 260 260 260 261 263 265 266 268 271 275 278 281 284 286 287 288 290 291 293 294 295 296 296 296 297 297 298 300 301 302 302 303 303 303 303 304 304 304 304 303 303 302 302 301 300 299 298 297 297 296 296 295 295 294 294 293 292 291 290 289 288 287 286 286 285 284
227 222 219 219 220 223 229 232 233 234 235 235 237 239 241 245 247 249 250 251 252 254 257 260 262 264 266 268 270 272 275 279 282 285 287 288 289 289 290 290 290 291 293 295 296 298 299 300 301 302 302 303 303 303 303 304 304 303 303 302 302 301 300 300 299 299 298 298 298 298 297 297 296 295 294 292 291 290 289 288 287 286 285 285 284
229 228 228 228 229 232 234 236 236 236 237 237 237 238 239 240 243 245 247 247 246 248 251 254 257 260 264 267 269 272 276 280 281 282 283 283 284 285 286 288 289 291 293 294 295 296 298 299 300 301 302 302 302 302 303 303 303 303 302 301 301 300 300 299 299 299 299 299 299 298 297 296 295 293 292 291 290 289 288 287 287 286 286 286 286
231 232 232 232 234 234 235 236 236 236 237 237 237 237 237 237 239 243 245 244 243 245 248 251 254 257 262 266 270 274 277 278 278 279 279 280 282 284 286 288 290 292 293 295 296 298 299 300 301 301 301 301 302 302 303 303 303 302 302 301 300 300 299 299 300 300 300 300 299 297 296 294 293 291 291 290 289 288 288 287 287 287 286 286 286
231 233 233 233 233 234 235 237 237 236 236 235 234 234 234 236 238 240 243 247 250 253 255 256 259 262 267 271 275 277 279 279 278 278 279 280 281 283 285 286 288 291 293 296 298 300 301 302 302 301 301 302 303 303 303 303 303 302 302 301 301 301 301 302 302 302 301 300 298 296 295 293 292 291 291 290 290 290 289 289 288 288 288 287 287
228 231 233 234 234 235 238 239 239 239 239 238 237 236 236 237 239 242 246 252 256 258 259 261 264 268 271 273 276 277 277 276 276 277 278 279 280 282 284 286 288 291 294 296 298 300 301 301 302 302 303 304 304 304 304 303 303 302 302 302 302 302 303 304 304 303 301 300 298 297 296 295 294 294 294 294 294 293 293 292 291 291 290 290 289
228 231 234 236 237 239 241 240 240 241 241 241 241 242 241 242 245 248 251 254 256 258 261 264 267 270 272 273 274 275 275 275 275 276 278 280 282 284 287 289 292 295 297 298 300 301 301 302 303 304 305 305 305 305 304 304 304 303 303 303 303 304 304 304 303 302 300 298 297 297 297 296 296 296 296 296 296 296 295 294 293 293 292 292 291
230 234 236 236 237 239 240 241 242 242 242 242 244 245 246 249 251 252 253 255 258 261 264 267 268 270 271 272 273 274 274 275 276 277 279 282 284 287 290 292 295 297 299 300 302 302 303 304 305 305 305 305 305 305 305 305 304 305 305 304 305 305 305 303 302 300 299 298 297 297 297 297 297 298 298 297 297 296 295 295 294 294 294 294 294
231 236 237 237 238 238 238 239 240 240 241 242 244 246 249 251 252 253 255 257 259 262 265 268 270 272 273 274 275 275 276 278 279 281 283 285 287 289 291 294 296 298 300 301 302 303 304 305 305 305 305 305 305 305 305 305 305 305 305 305 305 305 304 302 300 299 298 297 297 296 296 296 297 298 298 298 298 297 296 296 296 297 297 297 297
228 233 237 238 239 239 239 240 240 240 241 243 245 247 249 251 253 256 259 261 264 267 270 273 276 278 279 280 280 281 281 282 283 284 286 288 290 292 294 296 298 300 301 302 302 303 303 304 304 304 305 305 305 305 305 306 306 306 306 306 305 304 302 300 299 298 297 296 296 295 295 296 297 298 298 299 299 299 299 299 300 300 301 301 302
227 231 234 236 238 239 240 240 240 241 243 246 248 250 251 253 256 259 264 268 272 276 278 281 283 284 285 285 284 284 284 284 285 288 290 292 294 296 298 300 300 301 301 301 301 302 303 303 303 304 305 305 305 306 306 306 306 306 306 306 304 302 300 299 298 298 297 296 295 294 294 295 296 297 297 298 298 298 299 299 300 301 303 304 304
225 228 230 233 235 238 240 241 242 244 246 248 250 252 253 256 260 264 269 273 277 279 282 284 285 286 286 286 286 286 287 289 291 293 295 297 298 299 300 300 300 300 300 301 302 302 303 303 304 304 305 306 306 307 307 307 307 307 306 304 302 301 300 300 299 298 297 296 294 294 294 295 296 297 297 297 297 298 298 300 302 304 305 305 305
221 224 228 232 235 237 239 241 244 246 248 250 253 255 258 261 265 269 272 275 277 280 283 285 286 287 288 289 290 292 293 295 296 297 298 299 299 299 300 300 300 300 300 301 301 302 303 304 305 306 307 307 308 308 307 308 307 307 305 303 301 301 302 302 302 301 299 298 297 296 296 297 298 299 298 299 299 300 302 304 306 307 307 307 306
221 224 228 232 234 237 240 241 244 248 251 253 256 259 262 265 268 271 274 277 280 283 286 288 289 290 292 293 294 295 296 296 296 296 297 297 297 298 298 298 299 299 300 301 302 303 304 306 307 308 308 309 309 308 308 309 308 306 304 303 303 304 305 305 305 304 302 301 300 300 301 301 302 302 301 302 303 304 306 307 307 308 309 309 307
226 229 231 233 236 238 240 243 246 249 253 256 259 262 266 269 271 274 277 281 284 287 289 291 292 293 294 295 295 296 296 296 297 298 298 299 299 299 299 299 300 301 302 303 305 306 307 308 309 310 310 310 309 309 309 309 308 305 304 304 305 306 307 307 307 306 305 304 304 305 305 305 304 304 304 305 307 308 308 309 309 310 312 311 309
228 233 236 238 240 241 244 248 253 257 260 263 265 267 269 271 274 278 282 285 288 291 292 293 293 293 294 295 296 297 298 298 299 300 301 301 301 301 302 302 303 304 305 306 307 308 309 310 311 311 311 310 309 309 309 309 307 305 304 304 306 307 308 308 308 308 307 307 308 308 307 307 306 307 307 309 310 310 311 311 311 312 313 313 311
230 235 240 245 248 250 253 257 262 265 267 268 269 270 272 274 278 281 285 289 291 292 292 292 292 292 292 293 294 295 296 297 299 300 300 301 301 301 302 302 303 304 306 307 308 310 310 311 311 311 310 309 309 309 310 309 308 305 304 305 307 308 309 310 310 309 309 309 310 310 309 309 309 310 311 312 313 313 313 314 313 313 313 313 312